Location: Musselshell
(46.5176°N, 108.0911°W)
Time: 14:28:30
(UTC+00:00)

AO-91 - Pass Details

Date: 27 June 2022
Orbit: 450 x 798 km, 97.7° (Epoch: 07 August)

Event Time Altitude Azimuth Distance (km) Brightness Sun altitude
Rises 06:05:34 0° 13° (NNE) 2,604 ? -18.4°
Reaches altitude 10° 06:07:43 10° 13° (NNE) 1,676 ? -18.5°
Maximum altitude 06:11:16 89° 94° (E) 471 ? -18.7°
Enters shadow 06:11:54 57° 192° (SSW) 548 ? -18.7°
